User: anonymous   Login
Location: Oshawa
(43.9000°N, 78.8670°W)
Time: 17:42:34
(UTC-04:00)
Language:

CZ-4C R/B - Orbit

View from above orbital plane
View from above orbital plane
View from above satellite
View from above satellite

Ground track
Ground track

The orbit data is extracted from the following two-line orbital elements,

1 32290U 07055B   14295.12161166  .00012382  00000-0  46851-3 0  9924
2 32290 097.5663 010.7825 0085049 326.5035 092.1651 15.23698923383597
Epoch (UTC): 22 October 2014 02:55:07
Eccentricity: 0.0085049
inclination: 97.5663°
perigee height: 436 km
apogee height: 553 km
right ascension of ascending node: 10.7825°
argument of perigee: 326.5035°
revolutions per day: 15.23698923
mean anomaly at epoch: 92.1651°
orbit number at epoch: 38359

The dashed part of the orbit path shows where the satellite is in the earth's shadow,  

DLR